[[{"header":{"parameterUnit":"m.s-1","parameterCategory":1,"la1":30.2991,"la2":30.254,"lo1":-89.0895,"lo2":-89.0444,"dy":0.0017,"dx":0.0017,"nx":28,"ny":28,"refTime":"2024-12-21T09:00:00:Z","depth":0,"parameterNumber":2,"parameterNumberName":"U-component_of_WINDS"},"data":[0,0,0,0,0,0,0,0,0,0,0,0,0,0,0,0,0,0,0,0,0,0,0,0,0,0,0,0,0,0,0,0,0,0,0,0,0,0,0,0,0,0,0,0,0,0,0,0,0,0,0,0,0,0,0,0,0,0,-0.5538,-0.5539,0,-0.557,-0.5571,-0.5571,-0.5546,-0.5545,-0.5544,-0.5542,-0.5577,-0.5579,-0.558,0,0,0,0,0,0,0,0,0,0,0,0,0,-0.5455,-0.5457,-0.5538,-0.5539,-0.5539,-0.557,-0.5571,-0.5571,-0.5546,-0.5545,-0.5543,-0.5542,-0.5576,-0.5578,-0.5581,0,0,0,0,0,0,0,0,0,0,0,0,0,-0.549,-0.5457,-0.5538,-0.553,-0.553,-0.557,-0.5571,-0.5571,-0.5546,-0.5545,-0.5543,-0.5541,-0.5575,-0.5578,-0.5581,-0.5631,0,0,-0.559,-0.5591,0,0,0,0,0,0,0,0,-0.5488,-0.5493,-0.5531,-0.5531,-0.553,-0.5552,-0.5554,-0.5591,-0.5547,-0.554,-0.5542,-0.5541,-0.557,-0.5573,-0.5583,-0.5633,-0.5634,-0.559,-0.5592,-0.5593,-0.5594,0,0,0,0,0,0,0,-0.5485,-0.5491,-0.5551,-0.5531,-0.5531,-0.5525,-0.5528,-0.5561,-0.5564,-0.554,-0.5539,-0.5543,-0.5569,-0.558,-0.5583,-0.5635,-0.559,-0.5592,-0.5594,-0.5595,-0.5726,-0.5728,0,0,0,0,0,0,-0.5484,-0.5489,-0.555,-0.5552,-0.5505,-0.5528,-0.5531,-0.5547,-0.5563,-0.5564,-0.5544,-0.5541,-0.5576,-0.558,-0.5585,-0.5644,-0.5593,-0.5596,-0.5597,-0.5725,-0.5727,-0.5729,0,0,0,0,0,0,-0.5482,-0.5489,-0.5549,-0.552,-0.5527,-0.5531,-0.5549,-0.5548,-0.5559,-0.5566,-0.5566,-0.5554,-0.5575,-0.558,-0.5619,-0.5645,-0.5597,-0.56,-0.5722,-0.5725,-0.5728,-0.5764,0,0,0,0,0,0,-0.548,-0.5489,-0.5508,-0.5521,-0.5529,-0.5583,-0.555,-0.555,-0.5564,-0.5561,-0.5576,-0.5577,-0.5574,-0.5615,-0.5622,-0.5648,-0.5602,-0.572,-0.5724,-0.5727,-0.576,-0.5767,-0.5773,0,0,0,0,0,-0.5477,-0.5518,-0.5509,-0.5517,-0.5553,-0.5585,-0.5589,-0.5585,-0.5566,-0.5585,-0.559,-0.5576,-0.5641,-0.5619,-0.5627,-0.5654,-0.5719,-0.5723,-0.5727,-0.5757,-0.5766,-0.5773,0,0,0,0,0,0,-0.5509,-0.5519,-0.551,-0.5556,-0.557,-0.558,-0.5605,-0.5594,-0.5614,-0.561,-0.5604,-0.5608,-0.5648,-0.5655,-0.5631,-0.5703,-0.5677,-0.5682,-0.5697,-0.5705,-0.5712,-0.571,-0.5604,0,0,0,0,0,-0.5521,-0.5546,-0.5553,-0.5593,-0.56,-0.5601,-0.5615,-0.561,-0.5624,-0.563,-0.5637,-0.5651,-0.5674,-0.569,-0.5712,-0.576,-0.5763,-0.5782,-0.5789,-0.5794,-0.5799,-0.5824,-0.5833,-0.5741,-0.5741,-0.5741,0,0,-0.5547,-0.5556,-0.5572,-0.56,-0.561,-0.5635,-0.5607,-0.5635,-0.5654,-0.5634,-0.5672,-0.5677,-0.5692,-0.5736,-0.5756,-0.5743,-0.5825,-0.5799,-0.5803,-0.5806,-0.5829,-0.5838,-0.5846,-0.5744,-0.5744,-0.5743,0,0,-0.5608,-0.5617,-0.5651,-0.5661,-0.5675,-0.5675,-0.5683,-0.5695,-0.5698,-0.5735,-0.572,-0.5743,-0.5783,-0.5794,-0.5805,-0.5868,-0.5856,-0.5875,-0.5909,-0.5933,-0.5941,-0.5947,-0.5969,-0.5977,-0.588,-0.588,-0.588,0,-0.5639,-0.5676,-0.5669,-0.5699,-0.5711,-0.5693,-0.5727,-0.5737,-0.5759,-0.5768,-0.5753,-0.5802,-0.5811,-0.5857,-0.5872,-0.5881,-0.589,-0.5874,-0.594,-0.5946,-0.5952,-0.5973,-0.5981,-0.5882,-0.5882,-0.5882,-0.5881,0,-0.5713,-0.5739,-0.5765,-0.5785,-0.58,-0.5832,-0.5829,-0.5846,-0.5839,-0.584,-0.5877,-0.5887,-0.591,-0.592,-0.5915,-0.5965,-0.5956,-0.5941,-0.5915,-0.5963,-0.5983,-0.5991,-0.5885,-0.5885,-0.5884,-0.5883,0,0,-0.5797,-0.5811,-0.5821,-0.5829,-0.5843,-0.5863,-0.5893,-0.5915,-0.5929,-0.5944,-0.5969,-0.6002,-0.5987,-0.6,-0.5995,-0.6016,-0.6064,-0.5998,-0.5998,-0.601,-0.612,-0.6131,-0.6141,-0.6056,-0.6058,-0.6059,-0.6118,0,-0.5858,-0.591,-0.5904,-0.5954,-0.5977,-0.596,-0.5986,-0.5997,-0.5999,-0.6019,-0.6021,-0.6045,-0.6024,-0.6031,-0.6051,-0.6054,-0.6086,-0.605,-0.6079,-0.6081,-0.6077,-0.6151,-0.6164,-0.622,-0.6126,-0.6127,-0.6128,0,-0.5937,-0.5953,-0.6005,-0.6014,-0.6024,-0.6048,-0.6066,-0.6086,-0.6098,-0.6097,-0.611,-0.6101,-0.6131,-0.6103,-0.6144,-0.6119,-0.613,-0.6133,-0.6135,-0.6139,-0.6108,-0.6156,-0.6237,-0.6246,-0.614,-0.6139,-0.6138,0,-0.5992,-0.6027,-0.6063,-0.607,-0.6082,-0.6099,-0.6104,-0.6115,-0.6128,-0.6144,-0.6152,-0.6172,-0.6183,-0.6198,-0.6194,-0.6174,-0.6235,-0.6207,-0.6236,-0.6236,-0.625,-0.625,-0.6334,-0.6257,-0.6257,-0.6257,-0.6257,0,-0.6061,-0.6094,-0.6088,-0.611,-0.6145,-0.6137,-0.6173,-0.6176,-0.6185,-0.6207,-0.6193,-0.6214,-0.6207,-0.6227,-0.6224,-0.6258,-0.6263,-0.6263,-0.6262,-0.6265,-0.6265,-0.6273,-0.6269,-0.6259,-0.6258,-0.6258,-0.6258,0,-0.613,-0.6127,-0.6164,-0.6172,-0.6174,-0.62,-0.6206,-0.6226,-0.6226,-0.6254,-0.626,-0.626,-0.6283,-0.628,-0.6306,-0.6304,-0.6346,-0.634,-0.6342,-0.634,-0.6369,-0.6366,-0.6462,-0.6474,-0.6389,-0.639,-0.639,0,-0.6175,-0.6199,-0.6208,-0.6222,-0.6228,-0.625,-0.6263,-0.6255,-0.6269,-0.6283,-0.6302,-0.6323,-0.634,-0.6378,-0.638,-0.64,-0.6394,-0.6426,-0.6397,-0.6399,-0.6395,-0.6393,-0.6395,-0.6433,-0.6433,-0.6434,-0.6435,0,-0.6254,-0.6251,-0.627,-0.6288,-0.6303,-0.6317,-0.6329,-0.6341,-0.6334,-0.635,-0.6373,-0.6386,-0.6412,-0.6434,-0.6451,-0.6457,-0.6445,-0.6444,-0.6451,-0.6455,-0.6455,-0.6455,-0.6358,-0.6442,-0.6441,-0.6441,-0.644,-0.644,-0.6312,-0.6333,-0.6342,-0.6363,-0.6371,-0.6382,-0.6401,-0.6403,-0.6422,-0.6442,-0.6436,-0.6462,-0.6472,-0.6494,-0.6502,-0.6521,-0.651,-0.6521,-0.6524,-0.6527,-0.653,-0.6451,-0.6525,-0.6524,-0.6524,-0.6524,-0.6524,0,-0.6391,-0.6395,-0.6415,-0.6432,-0.6448,-0.6434,-0.6446,-0.6461,-0.6484,-0.6494,-0.651,-0.6536,-0.6556,-0.6559,-0.6578,-0.6593,-0.6588,-0.6599,-0.6598,-0.6599,-0.6539,-0.6531,-0.6602,-0.6602,-0.6602,-0.6602,-0.6602,-0.6602,-0.6434,-0.6467,-0.6465,-0.6502,-0.6506,-0.6531,-0.6539,-0.6549,-0.6557,-0.6586,-0.6603,-0.6604,-0.6611,-0.663,-0.6648,-0.6648,-0.6656,-0.6668,-0.6667,-0.6611,-0.6603,-0.6596,-0.6588,-0.667,-0.667,-0.6724,-0.6725,-0.6725]},{"header":{"parameterUnit":"m.s-1","parameterCategory":1,"la1":30.2991,"la2":30.254,"lo1":-89.0895,"lo2":-89.0444,"dy":0.0017,"dx":0.0017,"nx":28,"ny":28,"refTime":"2024-12-21T09:00:00:Z","depth":0,"parameterNumber":3,"parameterNumberName":"V-component_of_WINDS"},"data":[0,0,0,0,0,0,0,0,0,0,0,0,0,0,0,0,0,0,0,0,0,0,0,0,0,0,0,0,0,0,0,0,0,0,0,0,0,0,0,0,0,0,0,0,0,0,0,0,0,0,0,0,0,0,0,0,0,0,-5.762,-5.7621,0,-5.7743,-5.7744,-5.7745,-5.7668,-5.7664,-5.766,-5.7657,-5.7778,-5.7785,-5.7791,0,0,0,0,0,0,0,0,0,0,0,0,0,-5.7313,-5.7319,-5.762,-5.7621,-5.7623,-5.7742,-5.7744,-5.7746,-5.7668,-5.7664,-5.7659,-5.7655,-5.7776,-5.7784,-5.7792,0,0,0,0,0,0,0,0,0,0,0,0,0,-5.7442,-5.7321,-5.762,-5.7599,-5.7598,-5.7742,-5.7744,-5.7746,-5.7669,-5.7664,-5.7658,-5.7653,-5.7774,-5.7783,-5.7793,-5.7963,0,0,-5.7823,-5.7828,0,0,0,0,0,0,0,0,-5.7435,-5.7453,-5.76,-5.76,-5.76,-5.7684,-5.768,-5.7819,-5.7671,-5.7642,-5.7657,-5.7651,-5.7751,-5.7763,-5.7797,-5.7969,-5.7974,-5.7824,-5.783,-5.7834,-5.7837,0,0,0,0,0,0,0,-5.7426,-5.7448,-5.7668,-5.7602,-5.7602,-5.7582,-5.7594,-5.7706,-5.7725,-5.7644,-5.7639,-5.7655,-5.775,-5.7788,-5.78,-5.7976,-5.7824,-5.7833,-5.7839,-5.7843,-5.8291,-5.8296,0,0,0,0,0,0,-5.7419,-5.7441,-5.7664,-5.7672,-5.7502,-5.7592,-5.7605,-5.7663,-5.7724,-5.7728,-5.7659,-5.7651,-5.7774,-5.7788,-5.7804,-5.8006,-5.7834,-5.7844,-5.7849,-5.8285,-5.8292,-5.8298,0,0,0,0,0,0,-5.7413,-5.744,-5.7659,-5.7555,-5.7581,-5.7603,-5.7668,-5.7668,-5.7706,-5.7736,-5.7738,-5.7695,-5.777,-5.779,-5.7924,-5.8009,-5.7848,-5.7857,-5.8278,-5.8287,-5.8295,-5.8412,0,0,0,0,0,0,-5.7405,-5.7438,-5.7504,-5.7557,-5.7587,-5.778,-5.7673,-5.7674,-5.7724,-5.7714,-5.777,-5.7774,-5.7767,-5.791,-5.7934,-5.802,-5.7865,-5.827,-5.8282,-5.8292,-5.8401,-5.8424,-5.8444,0,0,0,0,0,-5.7394,-5.7532,-5.7508,-5.7536,-5.7671,-5.7785,-5.7802,-5.7793,-5.7731,-5.7797,-5.7815,-5.7772,-5.7996,-5.7924,-5.7951,-5.8041,-5.8265,-5.8279,-5.8292,-5.8391,-5.8419,-5.8443,0,0,0,0,0,0,-5.7487,-5.7538,-5.7513,-5.7672,-5.7725,-5.7771,-5.7854,-5.7823,-5.7894,-5.7881,-5.7866,-5.7879,-5.8019,-5.8043,-5.7962,-5.8208,-5.812,-5.814,-5.8187,-5.8214,-5.8235,-5.8226,-5.7873,0,0,0,0,0,-5.7527,-5.7617,-5.7656,-5.7792,-5.782,-5.7833,-5.7882,-5.7871,-5.7924,-5.7946,-5.7974,-5.8026,-5.8108,-5.8162,-5.8239,-5.8404,-5.8414,-5.8479,-5.85,-5.8518,-5.8534,-5.8622,-5.8651,-5.8342,-5.8342,-5.8342,0,0,-5.7608,-5.7647,-5.7705,-5.7812,-5.7852,-5.7943,-5.7852,-5.7953,-5.8021,-5.796,-5.8089,-5.8112,-5.8169,-5.8319,-5.8386,-5.8343,-5.8622,-5.8535,-5.8549,-5.8556,-5.8638,-5.8668,-5.8694,-5.8351,-5.835,-5.8348,0,0,-5.7804,-5.7844,-5.7961,-5.8003,-5.8064,-5.8072,-5.81,-5.8152,-5.8165,-5.8294,-5.825,-5.8329,-5.8471,-5.8513,-5.8553,-5.8764,-5.8726,-5.8789,-5.8902,-5.8987,-5.9011,-5.9033,-5.9107,-5.9134,-5.8806,-5.8806,-5.8807,0,-5.7898,-5.8036,-5.8025,-5.813,-5.8178,-5.8129,-5.8247,-5.8287,-5.837,-5.8403,-5.8354,-5.8531,-5.8565,-5.8724,-5.8775,-5.881,-5.884,-5.8783,-5.9009,-5.903,-5.905,-5.912,-5.9149,-5.8814,-5.8813,-5.8812,-5.8811,0,-5.8147,-5.8244,-5.8331,-5.8414,-5.8471,-5.8582,-5.8587,-5.8646,-5.8629,-5.8641,-5.8772,-5.8813,-5.8896,-5.8933,-5.8918,-5.9089,-5.906,-5.9011,-5.8923,-5.9087,-5.9153,-5.918,-5.8824,-5.8821,-5.8819,-5.8817,0,0,-5.8406,-5.8481,-5.8513,-5.8549,-5.8613,-5.8687,-5.8794,-5.8878,-5.8928,-5.8987,-5.9075,-5.9196,-5.915,-5.9196,-5.9184,-5.9259,-5.9423,-5.92,-5.9201,-5.9239,-5.9612,-5.9649,-5.9681,-5.9398,-5.9403,-5.9407,-5.9607,0,-5.8604,-5.8795,-5.8788,-5.8964,-5.9052,-5.9006,-5.91,-5.9148,-5.9162,-5.9237,-5.9251,-5.9337,-5.9271,-5.9298,-5.937,-5.9388,-5.9497,-5.9373,-5.9479,-5.9483,-5.9465,-5.9715,-5.9755,-5.9942,-5.9633,-5.9637,-5.9641,0,-5.8862,-5.8931,-5.9116,-5.9166,-5.9203,-5.9288,-5.9363,-5.9436,-5.9489,-5.9493,-5.9544,-5.952,-5.9627,-5.9537,-5.9683,-5.9599,-5.9641,-5.9657,-5.9664,-5.9672,-5.9571,-5.973,-6.0001,-6.0029,-5.9681,-5.9678,-5.9675,0,-5.9031,-5.9169,-5.9298,-5.9331,-5.9392,-5.9453,-5.9481,-5.9529,-5.9579,-5.9644,-5.9676,-5.9752,-5.9794,-5.9853,-5.9849,-5.9784,-5.9997,-5.9907,-6.0003,-6.0003,-6.0049,-6.0046,-6.033,-6.0078,-6.0078,-6.0077,-6.0077,0,-5.9253,-5.9368,-5.9374,-5.9454,-5.9581,-5.9571,-5.9696,-5.9718,-5.9761,-5.9842,-5.9806,-5.9883,-5.9874,-5.9951,-5.9948,-6.0069,-6.0088,-6.0094,-6.0092,-6.0097,-6.0096,-6.0124,-6.0111,-6.0085,-6.0083,-6.0082,-6.008,0,-5.9463,-5.9472,-5.9609,-5.9657,-5.9671,-5.9762,-5.9802,-5.9876,-5.9887,-5.999,-6.0013,-6.0029,-6.0117,-6.012,-6.0221,-6.0219,-6.0366,-6.035,-6.0349,-6.0346,-6.0441,-6.0432,-6.0753,-6.0794,-6.0516,-6.0518,-6.0521,0,-5.9604,-5.9692,-5.9749,-5.9801,-5.9834,-5.9919,-5.997,-5.9963,-6.0017,-6.0084,-6.015,-6.0235,-6.0302,-6.0445,-6.0464,-6.0541,-6.0526,-6.0633,-6.0537,-6.0539,-6.0526,-6.0521,-6.0529,-6.0651,-6.0654,-6.0657,-6.0659,0,-5.9853,-5.9853,-5.993,-6.0008,-6.007,-6.0131,-6.0187,-6.0231,-6.023,-6.0293,-6.0383,-6.0436,-6.0539,-6.0623,-6.0698,-6.0724,-6.0691,-6.0689,-6.0715,-6.0721,-6.0716,-6.0719,-6.0399,-6.0682,-6.0679,-6.0678,-6.0676,-6.0675,-6.0033,-6.0108,-6.016,-6.0245,-6.0287,-6.034,-6.0412,-6.0432,-6.0508,-6.0592,-6.0583,-6.0683,-6.0732,-6.0829,-6.0862,-6.0938,-6.0901,-6.0939,-6.0949,-6.0958,-6.0968,-6.0705,-6.0952,-6.0951,-6.0951,-6.095,-6.095,0,-6.0279,-6.031,-6.0389,-6.0469,-6.0536,-6.0501,-6.0561,-6.0619,-6.0708,-6.0757,-6.0825,-6.0928,-6.1009,-6.1035,-6.1114,-6.117,-6.1157,-6.1191,-6.1186,-6.1192,-6.0997,-6.0966,-6.12,-6.12,-6.12,-6.12,-6.12,-6.12,-6.0415,-6.0541,-6.0547,-6.0692,-6.0721,-6.082,-6.0857,-6.0905,-6.0945,-6.1062,-6.113,-6.1147,-6.1187,-6.1267,-6.134,-6.1345,-6.1375,-6.1415,-6.1414,-6.1231,-6.1206,-6.1182,-6.1153,-6.1422,-6.1423,-6.1603,-6.1605,-6.1606]}]]